This demonstration page uses our WeatherBlox Daily Observations layout. Learn more.

Left ArrowRight Arrow

Hourly Observations for October 10, 2022

Temp ( °F °C ) Dew Point ( °F °C ) Humidity (%) Winds ( mph kmh ) Pressure ( in mb ) Visibility ( mi km ) Precip ( " mm )
12:53 am 00:53 Clear 41 5 30 -1.1 65 65 WSW 5 7 30.02 1017 10 16 0.00 0.00
1:53 am 01:53 Clear 42 5.6 31 -0.6 64 64 WNW 3 6 30.00 1016 10 16 0.00 0.00
2:53 am 02:53 Clear 42 5.6 31 -0.6 64 64 W 3 6 29.98 1015 10 16 0.00 0.00
3:53 am 03:53 Clear 41 5 31 -0.6 67 67 NNW 3 6 29.97 1015 10 16 0.00 0.00
4:53 am 04:53 Clear 44 6.7 33 0.6 65 65 S 3 6 29.94 1014 10 16 0.00 0.00
5:53 am 05:53 Clear 40 4.4 33 0.6 76 76 W 3 6 29.93 1014 10 16 0.00 0.00
6:53 am 06:53 Clear 40 4.4 33 0.6 76 76 SW 7 11 29.92 1013 10 16 0.00 0.00
7:53 am 07:53 Sunny 38 3.3 32 0 79 79 WSW 7 11 29.92 1013 10 16 0.00 0.00
8:53 am 08:53 Sunny 45 7.2 35 1.7 68 68 WSW 7 11 29.88 1012 10 16 0.00 0.00
9:53 am 09:53 Sunny 54 12.2 37 2.8 53 53 SW 15 24 29.85 1011 10 16 0.00 0.00
10:53 am 10:53 Sunny 63 17.2 38 3.3 39 39 SW 23 37 29.81 1009 10 16 0.00 0.00
11:53 am 11:53 Sunny 66 18.9 39 3.9 37 37 SW 21 33 29.77 1008 10 16 0.00 0.00
12:53 pm 12:53 Sunny 72 22.2 40 4.4 31 31 SW 22 35 29.72 1007 10 16 0.00 0.00
1:53 pm 13:53 Sunny 76 24.4 38 3.3 25 25 SW 21 33 29.65 1004 10 16 0.00 0.00
2:53 pm 14:53 Sunny 78 25.6 33 0.6 19 19 WSW 23 37 29.61 1003 10 16 0.00 0.00
3:53 pm 15:53 Sunny 80 26.7 32 0 17 17 WSW 24 39 29.56 1001 10 16 0.00 0.00
4:53 pm 16:53 Sunny 77 25 29 -1.7 17 17 W 21 33 29.54 1000 10 16 0.00 0.00
5:53 pm 17:53 Sunny 75 23.9 28 -2.2 18 18 WSW 26 43 29.52 1000 10 16 0.00 0.00
6:53 pm 18:53 Clear 71 21.7 31 -0.6 23 23 W 24 39 29.54 1000 10 16 0.00 0.00
7:53 pm 19:53 Mostly Cloudy 69 20.6 34 1.1 27 27 W 16 26 29.53 1000 10 16 0.00 0.00
8:53 pm 20:53 Cloudy 65 18.3 33 0.6 30 30 SW 12 19 29.53 1000 10 16 0.00 0.00
9:53 pm 21:53 Partly Cloudy 63 17.2 39 3.9 41 41 SW 16 26 29.51 999 10 16 0.01 0.13
10:53 pm 22:53 Mostly Cloudy 60 15.6 37 2.8 42 42 SW 15 24 29.51 999 10 16 0.00 0.00
11:53 pm 23:53 Cloudy 63 17.2 37 2.8 38 38 WSW 18 30 29.50 999 10 16 0.00 0.00

Powered by AerisWeather